(216492) = 1999 XU141

Discovered at Socorro on 1999-12-10 by LINEAR.

Orbit

Orbit type: Main Belt

Note: WebGL enabled browser required.

epoch2023-09-13.0
epoch JD2460200.5
perihelion date2021-10-17.28823
perihelion JD2459504.78823
argument of perihelion (°)84.29219
ascending node (°)98.39988
inclination (°)28.64709
eccentricity0.3518585
perihelion distance (AU)1.7088436
Tisserand w.r.t. Jupiter3.1
ΔV w.r.t. Earth (km/sec)11.8
semimajor axis (AU)2.6365287
mean anomaly (°)160.17120
mean daily motion (°/day)0.23022640
aphelion distance (AU)3.564
period (years)4.28
P-vector [x]-0.87839916
P-vector [y]-0.21652163
P-vector [z]0.42606726
Q-vector [x]0.05901192
Q-vector [y]-0.93380394
Q-vector [z]-0.35288496
absolute magnitude15.51
phase slope0.15
uncertainty0
referenceMPO 778501
observations used478
oppositions13
arc length (days)8741
first opposition used1999
last opposition used2023
residual rms (arc-secs)0.65
perturbers coarse indicatorM-v
perturbers precise indicator003Ek
first observation date used1999-11-16.0
last observation date used2023-10-22.0
computer nameMPCLINUX
JD of orbit computation2456847.856159
perihelion JD uncertainty (days)4.4710E-05
argument of perihelion uncertainty (°)2.3342E-05
ascending node uncertainty (°)1.5319E-05
inclination uncertainty (°)8.5855E-06
eccentricity uncertainty 7.6292E-08
perihelion distance uncertainty (AU)1.9540E-07
Minimum Orbit Intersection Distances (in AU)
for orbit epoch: 2460200.5, reference: E2023-V10
Mercury1.3532
Venus1.09867
Earth0.94128
Mars0.44591
Jupiter2.28762
Saturn6.31764
Uranus16.5779
Neptune26.7474

Observations

492 total observations over interval: 1999 11 16.36787 – 2023 10 22.06433
These data are available for download (format description).

Date (UT) J2000 RA J2000 Dec Magn Location Ref
1999 11 16.36787 08 33 45.64 +19 51 25.8 19.1   704 – Lincoln Laboratory ETS, New Mexico MPS 10063
1999 11 16.38204 08 33 46.39 +19 51 32.8 19.6   704 – Lincoln Laboratory ETS, New Mexico MPS 10063
1999 11 16.39627 08 33 47.18 +19 51 42.3 19.7   704 – Lincoln Laboratory ETS, New Mexico MPS 10063
1999 11 16.41048 08 33 48.13 +19 51 48.8 19.6   704 – Lincoln Laboratory ETS, New Mexico MPS 10063
1999 11 16.42473 08 33 48.96 +19 51 56.1 19.3   704 – Lincoln Laboratory ETS, New Mexico MPS 10063
1999 12 10.34573 08 52 10.96 +24 58 52.5 18.3   704 – Lincoln Laboratory ETS, New Mexico MPS 9030
1999 12 10.36034 08 52 11.32 +24 59 07.8 18.7   704 – Lincoln Laboratory ETS, New Mexico MPS 9030
1999 12 10.37506 08 52 11.74 +24 59 23.6 18.8   704 – Lincoln Laboratory ETS, New Mexico MPS 9030
1999 12 10.38967 08 52 12.12 +24 59 38.7 18.9   704 – Lincoln Laboratory ETS, New Mexico MPS 9030
1999 12 10.40433 08 52 12.51 +24 59 53.7 17.9   704 – Lincoln Laboratory ETS, New Mexico MPS 9030
1999 12 15.41267 08 54 14.68 +26 32 15.2 18.0   704 – Lincoln Laboratory ETS, New Mexico MPS 9030
1999 12 15.42787 08 54 15.01 +26 32 33.1 18.5   704 – Lincoln Laboratory ETS, New Mexico MPS 9030
1999 12 15.44304 08 54 15.24 +26 32 51.4 18.3   704 – Lincoln Laboratory ETS, New Mexico MPS 9030
1999 12 15.45813 08 54 15.53 +26 33 08.6 18.4   704 – Lincoln Laboratory ETS, New Mexico MPS 9030
1999 12 15.47317 08 54 15.76 +26 33 26.3 18.6   704 – Lincoln Laboratory ETS, New Mexico MPS 9030
2000 01 02.43103 08 54 36.66 +33 29 16.2 18.0   704 – Lincoln Laboratory ETS, New Mexico MPS 9030
2000 01 02.45090 08 54 36.23 +33 29 47.9 18.2   704 – Lincoln Laboratory ETS, New Mexico MPS 9030
2000 01 02.46977 08 54 35.80 +33 30 18.1 18.6   704 – Lincoln Laboratory ETS, New Mexico MPS 9030
2000 01 02.48728 08 54 35.42 +33 30 46.1 18.6   704 – Lincoln Laboratory ETS, New Mexico MPS 9030
2000 01 02.50307 08 54 35.04 +33 31 10.5 18.5   704 – Lincoln Laboratory ETS, New Mexico MPS 9030
2000 01 03.29327 08 54 19.52 +33 52 04.0 18.3   704 – Lincoln Laboratory ETS, New Mexico MPS 9030
2000 01 03.30798 08 54 19.25 +33 52 28.3 18.3   704 – Lincoln Laboratory ETS, New Mexico MPS 9030
2000 01 03.32267 08 54 18.95 +33 52 50.8 18.7   704 – Lincoln Laboratory ETS, New Mexico MPS 9030
2000 01 03.33738 08 54 18.49 +33 53 13.8 18.3   704 – Lincoln Laboratory ETS, New Mexico MPS 9030
2000 01 03.35212 08 54 18.23 +33 53 38.8 18.3   704 – Lincoln Laboratory ETS, New Mexico MPS 9030
2000 01 08.30020 08 52 02.18 +36 07 50.3 18.1   704 – Lincoln Laboratory ETS, New Mexico MPS 9030
2000 01 08.31533 08 52 01.69 +36 08 16.1 19.3   704 – Lincoln Laboratory ETS, New Mexico MPS 9030
2000 01 08.33046 08 52 01.10 +36 08 41.1 18.4   704 – Lincoln Laboratory ETS, New Mexico MPS 9030
2000 01 08.34572 08 52 00.53 +36 09 05.3 18.3   704 – Lincoln Laboratory ETS, New Mexico MPS 9030
2000 01 08.36076 08 51 59.95 +36 09 31.1 18.0   704 – Lincoln Laboratory ETS, New Mexico MPS 9030
2000 01 10.27794 08 50 51.33 +37 02 36.0 17.3 R 699 – Lowell Observatory-LONEOS MPS 9030
2000 01 10.30339 08 50 50.30 +37 03 18.6   699 – Lowell Observatory-LONEOS MPS 9030
2000 01 10.32884 08 50 49.19 +37 03 59.8   699 – Lowell Observatory-LONEOS MPS 9030
2000 02 25.20517 08 03 51.93 +52 59 56.5   704 – Lincoln Laboratory ETS, New Mexico MPS 10891
2000 02 25.21837 08 03 51.37 +53 00 03.5   704 – Lincoln Laboratory ETS, New Mexico MPS 10891
2000 02 25.23157 08 03 50.85 +53 00 10.2   704 – Lincoln Laboratory ETS, New Mexico MPS 10891
2000 03 25.18662 08 12 25.97 +54 13 13.5 18.1   704 – Lincoln Laboratory ETS, New Mexico MPS 12131
2000 03 25.20105 08 12 26.94 +54 13 11.3 18.2   704 – Lincoln Laboratory ETS, New Mexico MPS 12131
2000 03 25.21597 08 12 28.01 +54 13 09.4 18.5   704 – Lincoln Laboratory ETS, New Mexico MPS 12131
2000 03 25.23045 08 12 28.95 +54 13 06.5 18.6   704 – Lincoln Laboratory ETS, New Mexico MPS 12131
2000 03 25.24531 08 12 29.93 +54 13 03.9 18.5   704 – Lincoln Laboratory ETS, New Mexico MPS 12131
2000 04 06.184390 08 30 00.132 +53 21 46.18 18.36 V 645 – Apache Point-Sloan Digital Sky Survey MPS 95666
2000 04 06.187862 08 30 00.483 +53 21 45.00 19.15   645 – Apache Point-Sloan Digital Sky Survey MPS 95666
2000 04 26.13676 09 11 07.33 +50 30 04.5 18.3   704 – Lincoln Laboratory ETS, New Mexico MPS 14070
2000 04 26.14942 09 11 09.12 +50 29 55.4 19.0   704 – Lincoln Laboratory ETS, New Mexico MPS 14070
2000 04 26.16207 09 11 10.80 +50 29 47.0 18.8   704 – Lincoln Laboratory ETS, New Mexico MPS 14070
2000 04 26.17551 09 11 12.87 +50 29 37.2 18.9   704 – Lincoln Laboratory ETS, New Mexico MPS 14070
2000 04 26.18815 09 11 14.30 +50 29 28.6 18.5   704 – Lincoln Laboratory ETS, New Mexico MPS 14070
2003 12 15.30625 05 31 58.71 +09 07 13.1 20.8   644 – Palomar Mountain/NEAT MPS 94492
2003 12 15.37781 05 31 53.07 +09 07 52.5 19.4   644 – Palomar Mountain/NEAT MPS 94492
2003 12 15.44826 05 31 47.55 +09 08 30.9 19.3   644 – Palomar Mountain/NEAT MPS 94492
2003 12 20.26992 05 25 32.66 +09 55 07.7 19.8   704 – Lincoln Laboratory ETS, New Mexico MPS 94492
2003 12 20.28297 05 25 31.69 +09 55 17.5 19.8   704 – Lincoln Laboratory ETS, New Mexico MPS 94492
2003 12 20.29626 05 25 30.48 +09 55 27.1 19.7   704 – Lincoln Laboratory ETS, New Mexico MPS 94492
2003 12 20.30940 05 25 29.56 +09 55 33.5 20.2   704 – Lincoln Laboratory ETS, New Mexico MPS 94492
2004 01 13.25854 04 57 05.38 +14 34 12.6 19.5   644 – Palomar Mountain/NEAT MPS 96568
2004 01 13.27785 04 57 04.23 +14 34 28.0 19.1   644 – Palomar Mountain/NEAT MPS 96568
2004 01 13.29902 04 57 02.96 +14 34 43.1 19.3   644 – Palomar Mountain/NEAT MPS 96568
2004 01 17.17337 04 53 38.87 +15 23 39.8 19.2   644 – Palomar Mountain/NEAT MPS 96878
2004 01 17.19432 04 53 37.81 +15 23 55.9 19.0   644 – Palomar Mountain/NEAT MPS 96878
2004 01 17.21573 04 53 36.70 +15 24 12.2 19.2   644 – Palomar Mountain/NEAT MPS 96878
2004 02 10.16903 04 44 16.28 +20 24 54.8 19.4   644 – Palomar Mountain/NEAT MPS 98591
2004 02 10.18848 04 44 16.31 +20 25 09.0 19.4   644 – Palomar Mountain/NEAT MPS 98591
2004 02 10.20970 04 44 16.32 +20 25 24.4 19.2   644 – Palomar Mountain/NEAT MPS 98591
2004 02 16.15539 04 45 13.18 +21 37 01.8 19.3   704 – Lincoln Laboratory ETS, New Mexico MPS 98591
2004 02 16.16711 04 45 13.30 +21 37 10.4 19.3   704 – Lincoln Laboratory ETS, New Mexico MPS 98591
2004 02 16.17878 04 45 13.48 +21 37 17.9 19.3   704 – Lincoln Laboratory ETS, New Mexico MPS 98591
2004 02 16.19041 04 45 13.76 +21 37 26.2 19.7   704 – Lincoln Laboratory ETS, New Mexico MPS 98591
2004 02 16.20203 04 45 13.83 +21 37 35.1 19.3   704 – Lincoln Laboratory ETS, New Mexico MPS 98591
2004 02 26.10978 04 49 34.84 +23 32 49.2 19.8   704 – Lincoln Laboratory ETS, New Mexico MPS 99952
2004 02 26.12133 04 49 35.26 +23 32 56.1 19.8   704 – Lincoln Laboratory ETS, New Mexico MPS 99952
2004 02 26.13274 04 49 35.56 +23 33 03.8 20.5   704 – Lincoln Laboratory ETS, New Mexico MPS 99952
2004 02 26.14397 04 49 36.01 +23 33 12.6 20.1   704 – Lincoln Laboratory ETS, New Mexico MPS 99952
2004 03 19.11998 05 10 16.50 +27 26 33.0 19.5   704 – Lincoln Laboratory ETS, New Mexico MPS 101986
2004 03 19.13093 05 10 17.28 +27 26 39.3 19.9   704 – Lincoln Laboratory ETS, New Mexico MPS 101986
2004 03 19.14207 05 10 18.11 +27 26 46.3 19.4   704 – Lincoln Laboratory ETS, New Mexico MPS 101986
2004 03 19.15338 05 10 18.99 +27 26 52.6 19.7   704 – Lincoln Laboratory ETS, New Mexico MPS 101986
2004 03 19.16422 05 10 19.74 +27 26 57.8 20.3   704 – Lincoln Laboratory ETS, New Mexico MPS 101986
2004 03 22.13234 05 14 09.98 +27 55 46.2 20.0   704 – Lincoln Laboratory ETS, New Mexico MPS 101986
2004 03 22.14388 05 14 10.95 +27 55 51.8 20.5   704 – Lincoln Laboratory ETS, New Mexico MPS 101986
2004 03 22.15525 05 14 11.78 +27 55 59.5 20.3   704 – Lincoln Laboratory ETS, New Mexico MPS 101986
2005 07 06.64835 20 08 11.29 -32 08 02.4 18.7 V E12 – Siding Spring Survey MPS 137357
2005 07 06.66458 20 08 10.14 -32 08 16.0 18.9 V E12 – Siding Spring Survey MPS 137357
2005 07 06.68075 20 08 09.02 -32 08 28.3 18.9 V E12 – Siding Spring Survey MPS 137357
2005 07 06.69693 20 08 07.90 -32 08 41.8 18.9 V E12 – Siding Spring Survey MPS 137357
